NUSAT-5 (MARYAM) (43204 NORAD) Tracking and Keplerian Element Data

This shows tracking and keplerian element data for the satellite.

Feedback or suggestion? Click here.




ElementValue
Catalog43204
NameNUSAT-5 (MARYAM)
Epoch Orbit8499
Epoch Day229.16708425
Epoch Year2019
RAAN356.0021
Inclination97.4037
Eccentricity0.0018966
Argument of Perigee94.1983
Mean Anonmoly28.9045
Mean Motion15.24053523
Decay Rate5.86E-06
L11 43204U 18015K 19229.16708425 .00000586 00000-0 27013-4 0 9990
L22 43204 97.4037 356.0021 0018966 94.1983 28.9045 15.24053523 84994

Live tracking and technical data element details for NUSAT-5 (MARYAM) (NORAD 43204). NUSAT-5 (MARYAM) can be tracked NOW for your location showing map with azimuth and elevation plus other details from your city location.

Track the satellite on the map from your city or location and see movement details for azimuth, elevation, latitude, longitude, range, height, and movement on the map or in text.







IsCatalogInMostPopularTable: catalog: 43204, numindb: 294
Update: records affected: 1



GetName: 43204 NUSAT-5 (MARYAM)

Hit Count: updated at: Wed, 21 Aug 2019 12:13:44 GMT